QPF
0.06 0.05 0.04 0.04 0.03 0.03 0.03 0.03 0.03 0.03 0.02 0.02 0.01 0.02 0.02 0.02 0.02 0.03 0.03 0.04 0.03 0.02 0.02 0.04 0.04 0.05 0.05 0.05 0.06 0.07 0.09 0.10 0.07 0.05 0.06 0.05 0.05 0.03 0.03 0.03 0.04 0.04 0.04
0.06 0.06 0.05 0.09 0.12 0.11 0.09 0.05 0.03 0.02 0.02 0.01 0.02 0.03 0.02 0.03 0.03 0.03 0.03 0.03 0.03 0.02 0.03 0.05 0.05 0.05 0.05 0.07 0.09 0.07 0.07 0.09 0.08 0.06 0.07 0.07 0.05 0.05 0.06 0.06 0.06 0.04 0.04
0.08 0.05 0.04 0.06 0.08 0.06 0.05 0.03 0.02 0.02 0.02 0.01 0.02 0.02 0.02 0.03 0.03 0.02 0.03 0.02 0.02 0.02 0.04 0.05 0.04 0.04 0.04 0.06 0.07 0.07 0.06 0.08 0.08 0.07 0.05 0.06 0.04 0.04 0.06 0.06 0.06 0.05 0.06
0.05 0.03 0.03 0.03 0.04 0.03 0.03 0.03 0.03 0.03 0.02 0.02 0.01 0.02 0.02 0.02 0.03 0.03 0.02 0.03 0.02 0.02 0.03 0.03 0.03 0.04 0.05 0.06 0.06 0.07 0.08 0.08 0.09 0.09 0.07 0.07 0.06 0.05 0.06 0.05 0.04 0.03 0.04
0.05 0.04 0.04 0.05 0.05 0.05 0.04 0.03 0.03 0.02 0.02 0.03 0.02 0.03 0.03 0.03 0.02 0.02 0.02 0.03 0.03 0.02 0.02 0.02 0.03 0.05 0.05 0.06 0.05 0.06 0.09 0.09 0.10 0.09 0.07 0.06 0.05 0.06 0.05 0.05 0.05 0.04 0.04
0.05 0.04 0.05 0.05 0.06 0.06 0.06 0.05 0.04 0.04 0.04 0.04 0.04 0.04 0.04 0.03 0.04 0.03 0.03 0.03 0.04 0.03 0.03 0.03 0.04 0.05 0.05 0.05 0.05 0.06 0.06 0.07 0.06 0.04 0.05 0.04 0.04 0.05 0.04 0.04 0.05 0.06 0.05
0.06 0.06 0.07 0.08 0.08 0.07 0.06 0.06 0.05 0.05 0.05 0.04 0.05 0.05 0.04 0.04 0.05 0.06 0.06 0.05 0.04 0.04 0.04 0.04 0.04 0.04 0.04 0.04 0.05 0.06 0.05 0.04 0.04 0.03 0.04 0.03 0.03 0.04 0.04 0.04 0.05 0.05 0.05
0.07 0.07 0.08 0.09 0.10 0.07 0.05 0.04 0.04 0.04 0.04 0.05 0.05 0.06 0.04 0.04 0.05 0.06 0.06 0.06 0.05 0.05 0.05 0.06 0.06 0.06 0.07 0.08 0.08 0.07 0.06 0.04 0.04 0.04 0.03 0.03 0.03 0.03 0.04 0.04 0.05 0.05 0.05
0.13 0.12 0.11 0.12 0.14 0.12 0.09 0.06 0.05 0.05 0.06 0.06 0.06 0.05 0.05 0.05 0.06 0.05 0.06 0.07 0.06 0.05 0.05 0.04 0.04 0.04 0.06 0.07 0.07 0.08 0.08 0.06 0.06 0.05 0.04 0.04 0.03 0.04 0.05 0.05 0.04 0.05 0.05
0.21 0.20 0.18 0.18 0.18 0.16 0.13 0.10 0.06 0.06 0.06 0.06 0.06 0.05 0.05 0.06 0.05 0.05 0.06 0.05 0.05 0.06 0.06 0.06 0.06 0.05 0.05 0.07 0.08 0.07 0.07 0.06 0.06 0.05 0.05 0.05 0.04 0.04 0.04 0.04 0.04 0.04 0.03
0.17 0.18 0.18 0.19 0.22 0.24 0.24 0.19 0.12 0.09 0.09 0.12 0.07 0.07 0.05 0.05 0.06 0.06 0.06 0.07 0.06 0.05 0.04 0.04 0.03 0.04 0.04 0.05 0.07 0.07 0.08 0.09 0.08 0.07 0.07 0.06 0.05 0.04 0.04 0.03 0.04 0.05 0.04
0.11 0.13 0.12 0.12 0.15 0.21 0.25 0.26 0.24 0.16 0.09 0.09 0.09 0.09 0.07 0.07 0.07 0.07 0.06 0.06 0.05 0.04 0.03 0.02 0.02 0.02 0.02 0.02 0.03 0.05 0.07 0.07 0.06 0.06 0.05 0.04 0.04 0.04 0.05 0.05 0.05 0.05 0.04
0.09 0.10 0.11 0.13 0.14 0.16 0.18 0.19 0.17 0.18 0.17 0.10 0.08 0.06 0.05 0.04 0.03 0.03 0.03 0.03 0.03 0.02 0.02 0.02 0.02 0.02 0.01 0.01 0.02 0.04 0.05 0.03 0.04 0.04 0.03 0.02 0.03 0.05 0.05 0.05 0.04 0.04 0.04
0.07 0.09 0.11 0.09 0.10 0.14 0.16 0.16 0.16 0.16 0.15 0.10 0.08 0.06 0.05 0.03 0.02 0.02 0.03 0.02 0.02 0.01 0.01 0.01 0.01 0.01 0.01 0.02 0.03 0.03 0.03 0.02 0.02 0.02 0.02 0.02 0.03 0.04 0.04 0.04 0.05 0.06 0.06
0.05 0.05 0.07 0.08 0.08 0.10 0.14 0.15 0.11 0.12 0.16 0.15 0.12 0.08 0.06 0.06 0.04 0.03 0.03 0.03 0.02 0.02 0.02 0.01 0.02 0.02 0.03 0.03 0.02 0.01 0.02 0.02 0.02 0.02 0.02 0.03 0.03 0.03 0.03 0.03 0.04 0.04 0.04
0.04 0.04 0.04 0.05 0.06 0.05 0.07 0.11 0.11 0.08 0.08 0.08 0.08 0.07 0.06 0.06 0.07 0.05 0.04 0.04 0.04 0.04 0.03 0.03 0.04 0.04 0.03 0.03 0.02 0.02 0.02 0.02 0.02 0.02 0.03 0.03 0.03 0.03 0.04 0.04 0.04 0.03 0.03
0.03 0.04 0.03 0.04 0.04 0.05 0.05 0.06 0.07 0.07 0.07 0.06 0.05 0.05 0.06 0.07 0.08 0.07 0.06 0.06 0.07 0.07 0.05 0.05 0.05 0.05 0.04 0.03 0.02 0.02 0.02 0.02 0.02 0.02 0.03 0.03 0.03 0.04 0.04 0.04 0.04 0.03 0.03
0.04 0.04 0.04 0.04 0.03 0.04 0.05 0.06 0.06 0.06 0.05 0.05 0.06 0.06 0.05 0.05 0.07 0.08 0.11 0.12 0.11 0.10 0.07 0.06 0.05 0.04 0.04 0.04 0.04 0.03 0.03 0.02 0.03 0.03 0.04 0.04 0.05 0.06 0.05 0.04 0.04 0.04 0.03
0.04 0.04 0.04 0.03 0.03 0.03 0.04 0.05 0.06 0.07 0.07 0.05 0.04 0.04 0.06 0.06 0.06 0.06 0.07 0.07 0.07 0.06 0.05 0.04 0.04 0.03 0.03 0.03 0.04 0.05 0.05 0.04 0.04 0.05 0.05 0.05 0.06 0.07 0.06 0.05 0.05 0.04 0.03
0.04 0.05 0.05 0.05 0.05 0.06 0.06 0.06 0.07 0.07 0.07 0.07 0.06 0.05 0.05 0.05 0.04 0.04 0.04 0.04 0.05 0.05 0.04 0.04 0.04 0.04 0.04 0.04 0.04 0.06 0.08 0.07 0.05 0.06 0.07 0.07 0.07 0.07 0.06 0.07 0.07 0.06 0.04
0.02 0.03 0.03 0.04 0.05 0.05 0.05 0.06 0.07 0.06 0.06 0.07 0.07 0.07 0.07 0.05 0.04 0.04 0.04 0.05 0.06 0.06 0.05 0.05 0.05 0.05 0.05 0.05 0.05 0.05 0.05 0.06 0.05 0.05 0.05 0.05 0.06 0.06 0.07 0.07 0.07 0.06 0.05
0.02 0.02 0.02 0.02 0.03 0.03 0.04 0.05 0.06 0.04 0.04 0.04 0.04 0.04 0.05 0.05 0.06 0.06 0.06 0.07 0.08 0.08 0.07 0.07 0.07 0.07 0.07 0.07 0.06 0.05 0.04 0.04 0.04 0.04 0.04 0.03 0.04 0.04 0.05 0.05 0.05 0.05 0.05
0.03 0.03 0.03 0.03 0.03 0.03 0.03 0.03 0.02 0.01 0.01 0.01 0.02 0.02 0.02 0.03 0.04 0.05 0.05 0.05 0.06 0.06 0.06 0.07 0.07 0.06 0.06 0.06 0.05 0.04 0.04 0.05 0.04 0.04 0.03 0.03 0.02 0.03 0.03 0.03 0.03 0.04 0.05
0.02 0.02 0.02 0.02 0.02 0.03 0.03 0.03 0.02 0.01 0.01 0.01 0.01 0.01 0.01 0.01 0.01 0.02 0.02 0.02 0.02 0.03 0.03 0.04 0.04 0.04 0.04 0.04 0.04 0.04 0.04 0.05 0.05 0.05 0.05 0.04 0.04 0.03 0.04 0.04 0.04 0.04 0.06
0.01 0.02 0.02 0.02 0.03 0.03 0.04 0.03 0.03 0.02 0.01 0.01 0.01 0.01 0.01 0.01 0.01 0.02 0.02 0.02 0.02 0.02 0.03 0.04 0.04 0.03 0.03 0.03 0.02 0.03 0.04 0.04 0.04 0.03 0.03 0.03 0.03 0.03 0.03 0.04 0.05 0.05 0.06
0.01 0.01 0.02 0.03 0.04 0.04 0.04 0.04 0.03 0.03 0.02 0.02 0.02 0.01 0.01 0.01 0.01 0.01 0.02 0.02 0.02 0.02 0.02 0.03 0.03 0.03 0.03 0.02 0.02 0.03 0.04 0.03 0.03 0.03 0.02 0.02 0.02 0.02 0.02 0.03 0.03 0.04 0.05
MSLP
1009.41 1009.77 1010.10 1010.38 1010.59 1010.75 1010.87 1010.97 1011.09 1011.24 1011.44 1011.67 1011.94 1012.20 1012.44 1012.64 1012.80 1012.90 1012.98 1013.03 1013.07 1013.12 1013.17 1013.22 1013.26 1013.26 1013.23 1013.15 1013.05 1012.92 1012.79 1012.65 1012.53 1012.41 1012.29 1012.14 1011.96 1011.74 1011.46 1011.14 1010.80 1010.48 1010.21
1009.08 1009.45 1009.77 1010.02 1010.20 1010.33 1010.43 1010.52 1010.65 1010.82 1011.05 1011.33 1011.63 1011.94 1012.23 1012.47 1012.66 1012.78 1012.86 1012.90 1012.92 1012.92 1012.92 1012.92 1012.90 1012.86 1012.79 1012.70 1012.59 1012.47 1012.35 1012.25 1012.16 1012.09 1012.01 1011.92 1011.79 1011.62 1011.41 1011.15 1010.88 1010.61 1010.38
1008.69 1009.12 1009.47 1009.74 1009.92 1010.04 1010.12 1010.22 1010.35 1010.54 1010.79 1011.10 1011.45 1011.80 1012.12 1012.40 1012.60 1012.74 1012.82 1012.84 1012.83 1012.80 1012.76 1012.70 1012.63 1012.55 1012.45 1012.33 1012.21 1012.09 1011.99 1011.91 1011.85 1011.81 1011.77 1011.73 1011.66 1011.55 1011.40 1011.21 1011.00 1010.79 1010.59
1008.25 1008.79 1009.22 1009.53 1009.74 1009.88 1009.97 1010.07 1010.21 1010.42 1010.69 1011.02 1011.40 1011.77 1012.12 1012.41 1012.62 1012.76 1012.83 1012.84 1012.80 1012.74 1012.65 1012.56 1012.45 1012.33 1012.20 1012.07 1011.94 1011.82 1011.72 1011.65 1011.61 1011.60 1011.60 1011.60 1011.58 1011.53 1011.44 1011.31 1011.16 1010.99 1010.82
1007.79 1008.46 1008.99 1009.39 1009.65 1009.82 1009.94 1010.06 1010.22 1010.44 1010.72 1011.07 1011.45 1011.83 1012.18 1012.47 1012.68 1012.81 1012.86 1012.84 1012.78 1012.68 1012.57 1012.45 1012.31 1012.18 1012.04 1011.90 1011.77 1011.65 1011.56 1011.50 1011.47 1011.47 1011.50 1011.53 1011.55 1011.54 1011.51 1011.43 1011.32 1011.18 1011.03
1007.36 1008.16 1008.81 1009.29 1009.61 1009.83 1009.99 1010.13 1010.30 1010.53 1010.83 1011.17 1011.55 1011.93 1012.26 1012.54 1012.73 1012.83 1012.86 1012.82 1012.73 1012.61 1012.48 1012.34 1012.21 1012.07 1011.93 1011.80 1011.68 1011.57 1011.48 1011.43 1011.41 1011.42 1011.46 1011.51 1011.56 1011.59 1011.59 1011.55 1011.47 1011.35 1011.20
1007.03 1007.93 1008.66 1009.20 1009.59 1009.84 1010.03 1010.20 1010.39 1010.63 1010.93 1011.27 1011.64 1012.00 1012.31 1012.56 1012.72 1012.80 1012.80 1012.73 1012.63 1012.50 1012.37 1012.23 1012.10 1011.98 1011.86 1011.75 1011.64 1011.55 1011.48 1011.43 1011.42 1011.43 1011.47 1011.53 1011.59 1011.64 1011.66 1011.64 1011.58 1011.48 1011.32
1006.84 1007.78 1008.55 1009.13 1009.54 1009.82 1010.03 1010.21 1010.42 1010.66 1010.96 1011.30 1011.66 1011.99 1012.28 1012.50 1012.63 1012.68 1012.66 1012.58 1012.47 1012.35 1012.22 1012.11 1012.00 1011.91 1011.82 1011.73 1011.65 1011.58 1011.52 1011.48 1011.46 1011.48 1011.51 1011.57 1011.63 1011.68 1011.71 1011.70 1011.65 1011.55 1011.40
1006.82 1007.75 1008.49 1009.06 1009.46 1009.73 1009.94 1010.14 1010.34 1010.60 1010.90 1011.23 1011.57 1011.89 1012.16 1012.35 1012.47 1012.50 1012.47 1012.39 1012.29 1012.18 1012.07 1011.99 1011.92 1011.86 1011.80 1011.75 1011.70 1011.64 1011.59 1011.56 1011.54 1011.54 1011.57 1011.61 1011.66 1011.70 1011.74 1011.73 1011.69 1011.60 1011.44
1006.98 1007.82 1008.49 1008.99 1009.35 1009.60 1009.79 1009.98 1010.19 1010.45 1010.75 1011.08 1011.41 1011.71 1011.97 1012.15 1012.26 1012.29 1012.26 1012.20 1012.11 1012.02 1011.95 1011.90 1011.86 1011.84 1011.82 1011.80 1011.77 1011.73 1011.69 1011.65 1011.63 1011.62 1011.63 1011.66 1011.69 1011.73 1011.75 1011.75 1011.71 1011.63 1011.49
1007.27 1007.98 1008.54 1008.95 1009.24 1009.45 1009.62 1009.79 1010.00 1010.26 1010.56 1010.89 1011.21 1011.51 1011.76 1011.95 1012.05 1012.09 1012.08 1012.04 1011.98 1011.92 1011.88 1011.86 1011.86 1011.86 1011.87 1011.87 1011.85 1011.83 1011.79 1011.75 1011.72 1011.70 1011.70 1011.71 1011.73 1011.76 1011.78 1011.78 1011.75 1011.67 1011.55
1007.66 1008.23 1008.66 1008.96 1009.17 1009.33 1009.47 1009.63 1009.84 1010.09 1010.39 1010.72 1011.04 1011.34 1011.59 1011.78 1011.89 1011.95 1011.96 1011.94 1011.91 1011.89 1011.87 1011.88 1011.90 1011.92 1011.94 1011.95 1011.94 1011.92 1011.88 1011.84 1011.81 1011.78 1011.77 1011.77 1011.79 1011.81 1011.82 1011.82 1011.80 1011.74 1011.64
1008.10 1008.52 1008.82 1009.03 1009.17 1009.29 1009.40 1009.55 1009.75 1010.00 1010.30 1010.62 1010.94 1011.23 1011.48 1011.67 1011.80 1011.87 1011.91 1011.92 1011.91 1011.91 1011.92 1011.94 1011.96 1011.99 1012.01 1012.02 1012.00 1011.98 1011.94 1011.90 1011.87 1011.84 1011.83 1011.83 1011.84 1011.86 1011.88 1011.88 1011.87 1011.82 1011.74
1008.54 1008.83 1009.04 1009.17 1009.26 1009.34 1009.44 1009.58 1009.77 1010.01 1010.30 1010.60 1010.91 1011.19 1011.43 1011.62 1011.76 1011.85 1011.90 1011.93 1011.94 1011.96 1011.97 1011.99 1012.02 1012.03 1012.04 1012.03 1012.01 1011.98 1011.95 1011.91 1011.88 1011.86 1011.86 1011.88 1011.90 1011.92 1011.94 1011.95 1011.94 1011.91 1011.84
1008.96 1009.15 1009.28 1009.36 1009.42 1009.48 1009.57 1009.70 1009.88 1010.11 1010.37 1010.65 1010.93 1011.19 1011.42 1011.60 1011.74 1011.83 1011.90 1011.94 1011.96 1011.98 1012.00 1012.00 1012.01 1012.01 1011.99 1011.97 1011.94 1011.91 1011.88 1011.85 1011.84 1011.85 1011.86 1011.90 1011.93 1011.97 1012.00 1012.01 1012.00 1011.97 1011.92
1009.32 1009.45 1009.53 1009.58 1009.63 1009.68 1009.77 1009.89 1010.05 1010.25 1010.47 1010.72 1010.96 1011.18 1011.38 1011.54 1011.68 1011.77 1011.84 1011.89 1011.92 1011.93 1011.93 1011.93 1011.91 1011.89 1011.86 1011.82 1011.78 1011.75 1011.73 1011.73 1011.74 1011.78 1011.82 1011.88 1011.94 1011.99 1012.03 1012.05 1012.04 1012.01 1011.96
1009.63 1009.72 1009.77 1009.81 1009.85 1009.90 1009.97 1010.07 1010.20 1010.36 1010.54 1010.73 1010.92 1011.11 1011.27 1011.41 1011.53 1011.62 1011.69 1011.74 1011.77 1011.78 1011.77 1011.75 1011.71 1011.67 1011.62 1011.58 1011.54 1011.52 1011.52 1011.55 1011.60 1011.67 1011.76 1011.85 1011.93 1011.99 1012.04 1012.06 1012.04 1012.01 1011.96
1009.88 1009.94 1009.98 1010.01 1010.03 1010.07 1010.12 1010.20 1010.29 1010.40 1010.53 1010.66 1010.80 1010.93 1011.06 1011.18 1011.28 1011.37 1011.43 1011.48 1011.51 1011.52 1011.50 1011.47 1011.42 1011.37 1011.32 1011.27 1011.25 1011.25 1011.29 1011.35 1011.44 1011.56 1011.68 1011.80 1011.91 1011.98 1012.03 1012.05 1012.03 1011.99 1011.93
1010.07 1010.11 1010.13 1010.14 1010.16 1010.18 1010.20 1010.24 1010.28 1010.34 1010.41 1010.49 1010.57 1010.66 1010.75 1010.85 1010.94 1011.02 1011.09 1011.14 1011.17 1011.17 1011.16 1011.12 1011.07 1011.02 1010.97 1010.94 1010.94 1010.98 1011.05 1011.16 1011.29 1011.45 1011.61 1011.76 1011.88 1011.98 1012.03 1012.04 1012.01 1011.96 1011.90
1010.19 1010.20 1010.21 1010.21 1010.20 1010.20 1010.19 1010.19 1010.19 1010.19 1010.21 1010.23 1010.27 1010.32 1010.39 1010.46 1010.54 1010.62 1010.68 1010.74 1010.77 1010.78 1010.77 1010.74 1010.69 1010.65 1010.62 1010.62 1010.65 1010.72 1010.83 1010.98 1011.16 1011.36 1011.55 1011.72 1011.87 1011.97 1012.02 1012.03 1012.00 1011.94 1011.87
1010.24 1010.23 1010.21 1010.19 1010.17 1010.14 1010.10 1010.06 1010.02 1009.99 1009.96 1009.94 1009.94 1009.97 1010.01 1010.07 1010.14 1010.21 1010.27 1010.33 1010.36 1010.37 1010.36 1010.34 1010.31 1010.28 1010.27 1010.30 1010.36 1010.47 1010.63 1010.82 1011.04 1011.27 1011.49 1011.68 1011.84 1011.94 1012.00 1012.01 1011.98 1011.92 1011.86
1010.20 1010.17 1010.14 1010.11 1010.07 1010.02 1009.96 1009.90 1009.83 1009.76 1009.71 1009.66 1009.64 1009.64 1009.66 1009.70 1009.76 1009.82 1009.88 1009.92 1009.95 1009.96 1009.95 1009.94 1009.92 1009.91 1009.93 1009.98 1010.08 1010.22 1010.42 1010.64 1010.89 1011.15 1011.39 1011.60 1011.76 1011.88 1011.94 1011.95 1011.93 1011.87 1011.82
1010.06 1010.03 1009.99 1009.96 1009.92 1009.86 1009.80 1009.72 1009.64 1009.56 1009.49 1009.43 1009.38 1009.37 1009.37 1009.39 1009.43 1009.47 1009.51 1009.53 1009.55 1009.54 1009.53 1009.51 1009.50 1009.51 1009.55 1009.63 1009.76 1009.93 1010.15 1010.41 1010.68 1010.95 1011.20 1011.42 1011.59 1011.71 1011.78 1011.81 1011.79 1011.76 1011.72
1009.84 1009.81 1009.79 1009.76 1009.73 1009.68 1009.62 1009.55 1009.46 1009.38 1009.30 1009.23 1009.17 1009.13 1009.11 1009.11 1009.11 1009.12 1009.13 1009.13 1009.12 1009.09 1009.07 1009.05 1009.04 1009.06 1009.11 1009.21 1009.36 1009.56 1009.80 1010.07 1010.35 1010.63 1010.88 1011.11 1011.28 1011.41 1011.49 1011.53 1011.54 1011.53 1011.51
1009.55 1009.54 1009.53 1009.52 1009.51 1009.47 1009.43 1009.37 1009.29 1009.21 1009.12 1009.04 1008.97 1008.90 1008.85 1008.81 1008.78 1008.74 1008.71 1008.67 1008.63 1008.58 1008.54 1008.51 1008.51 1008.53 1008.60 1008.72 1008.88 1009.09 1009.34 1009.61 1009.89 1010.17 1010.42 1010.64 1010.81 1010.95 1011.04 1011.10 1011.13 1011.15 1011.17
1009.22 1009.22 1009.24 1009.25 1009.26 1009.24 1009.21 1009.16 1009.09 1009.01 1008.91 1008.82 1008.72 1008.63 1008.54 1008.46 1008.38 1008.30 1008.22 1008.14 1008.07 1008.00 1007.94 1007.91 1007.91 1007.94 1008.02 1008.15 1008.33 1008.54 1008.79 1009.06 1009.33 1009.59 1009.82 1010.03 1010.20 1010.34 1010.44 1010.51 1010.57 1010.62 1010.68
Thickness
5785 5782 5779 5776 5773 5769 5765 5763 5762 5759 5757 5756 5754 5752 5750 5748 5746 5743 5741 5740 5738 5736 5736 5735 5734 5734 5732 5731 5730 5727 5724 5721 5715 5718 5720 5721 5720 5719 5718 5716 5714 5713 5712
5782 5779 5776 5773 5770 5766 5763 5761 5761 5758 5756 5754 5751 5749 5747 5745 5743 5740 5738 5737 5734 5733 5732 5732 5731 5731 5729 5729 5727 5724 5722 5720 5716 5713 5715 5716 5716 5715 5713 5711 5709 5708 5707
5779 5775 5771 5769 5766 5764 5761 5759 5758 5755 5753 5751 5748 5745 5743 5741 5739 5737 5735 5733 5732 5731 5729 5728 5727 5726 5725 5724 5723 5721 5720 5718 5715 5712 5711 5712 5711 5711 5708 5706 5704 5702 5701
5774 5771 5767 5766 5763 5761 5759 5756 5754 5751 5748 5746 5744 5742 5740 5738 5736 5734 5732 5730 5728 5727 5726 5725 5725 5723 5721 5720 5719 5717 5716 5713 5710 5708 5706 5705 5704 5704 5702 5699 5696 5695 5695
5768 5765 5764 5762 5760 5758 5755 5752 5749 5747 5744 5742 5739 5736 5734 5733 5731 5729 5727 5726 5723 5722 5722 5721 5721 5721 5720 5718 5716 5714 5711 5708 5705 5702 5700 5699 5698 5697 5696 5695 5692 5689 5688
5763 5760 5759 5757 5755 5752 5749 5746 5744 5741 5739 5737 5734 5731 5729 5728 5727 5725 5723 5721 5719 5717 5716 5716 5716 5716 5716 5715 5713 5711 5709 5704 5700 5698 5696 5694 5694 5693 5692 5690 5685 5681 5678
5755 5754 5751 5750 5747 5745 5743 5739 5736 5734 5733 5730 5728 5726 5723 5722 5721 5720 5718 5716 5714 5712 5710 5709 5709 5710 5709 5708 5707 5706 5704 5703 5701 5697 5693 5692 5690 5690 5686 5683 5680 5677 5676
5748 5747 5744 5742 5739 5737 5734 5731 5730 5728 5726 5724 5722 5720 5718 5717 5715 5714 5712 5710 5708 5707 5706 5704 5703 5702 5702 5701 5699 5698 5697 5696 5695 5694 5692 5690 5688 5686 5683 5680 5677 5674 5672
5739 5738 5738 5736 5732 5729 5725 5723 5722 5720 5718 5716 5715 5713 5711 5710 5709 5708 5705 5703 5701 5700 5699 5698 5697 5696 5696 5695 5692 5689 5688 5688 5688 5687 5686 5684 5682 5680 5677 5672 5668 5664 5662
5732 5731 5731 5728 5725 5722 5721 5717 5716 5714 5711 5709 5707 5706 5705 5703 5702 5701 5698 5696 5693 5691 5691 5691 5691 5689 5689 5687 5684 5682 5679 5680 5679 5677 5676 5675 5673 5671 5669 5666 5662 5658 5655
5723 5722 5721 5721 5718 5716 5714 5711 5709 5707 5704 5703 5701 5699 5697 5696 5695 5694 5692 5689 5686 5684 5683 5683 5683 5681 5681 5680 5677 5675 5674 5673 5670 5668 5667 5665 5663 5662 5660 5658 5657 5654 5650
5713 5712 5712 5711 5710 5709 5705 5702 5700 5698 5694 5693 5691 5689 5689 5688 5687 5687 5685 5683 5681 5678 5677 5677 5676 5674 5673 5672 5670 5668 5667 5664 5661 5658 5656 5655 5654 5653 5652 5651 5650 5648 5647
5703 5702 5701 5700 5699 5698 5695 5692 5690 5688 5685 5682 5681 5679 5678 5678 5677 5677 5677 5676 5674 5671 5670 5670 5668 5666 5665 5663 5662 5660 5657 5655 5652 5649 5648 5648 5648 5646 5644 5642 5641 5639 5638
5693 5692 5690 5688 5688 5687 5685 5684 5680 5677 5675 5672 5670 5669 5668 5668 5667 5666 5666 5666 5664 5662 5661 5660 5659 5658 5656 5655 5653 5651 5649 5647 5645 5643 5642 5641 5639 5637 5635 5634 5631 5629 5626
5682 5681 5680 5679 5677 5675 5674 5671 5670 5670 5667 5665 5662 5661 5660 5659 5659 5659 5657 5656 5655 5653 5651 5649 5647 5646 5645 5644 5644 5643 5641 5639 5637 5636 5634 5632 5631 5629 5626 5624 5622 5620 5617
5672 5671 5670 5670 5669 5667 5664 5661 5661 5660 5659 5658 5657 5655 5655 5654 5653 5650 5648 5647 5646 5644 5640 5638 5638 5637 5637 5636 5636 5635 5633 5631 5630 5628 5626 5624 5622 5621 5618 5615 5613 5610 5608
5663 5662 5661 5661 5660 5658 5655 5652 5651 5651 5650 5649 5649 5647 5646 5645 5643 5641 5639 5638 5635 5633 5630 5630 5630 5629 5628 5627 5627 5626 5625 5624 5623 5621 5619 5616 5614 5612 5610 5607 5605 5602 5599
5656 5655 5653 5652 5650 5649 5646 5644 5643 5641 5641 5640 5640 5639 5638 5637 5635 5633 5631 5628 5625 5624 5623 5622 5621 5620 5619 5618 5618 5617 5617 5616 5614 5613 5611 5609 5607 5604 5601 5599 5597 5595 5592
5648 5646 5645 5644 5642 5640 5638 5636 5634 5632 5631 5631 5630 5630 5630 5628 5627 5624 5622 5620 5618 5616 5614 5613 5613 5612 5610 5610 5609 5609 5608 5607 5606 5605 5603 5601 5599 5596 5594 5592 5590 5588 5585
5640 5640 5638 5636 5634 5632 5630 5628 5625 5624 5622 5621 5620 5620 5619 5618 5617 5615 5613 5612 5610 5609 5608 5606 5606 5604 5603 5602 5601 5601 5600 5598 5597 5596 5594 5593 5591 5588 5586 5584 5582 5579 5577
5630 5629 5629 5627 5624 5623 5622 5620 5618 5616 5614 5613 5612 5613 5612 5611 5610 5608 5606 5604 5603 5602 5600 5599 5598 5597 5596 5594 5593 5592 5591 5590 5589 5587 5586 5584 5582 5579 5578 5575 5573 5572 5571
5621 5620 5619 5617 5616 5615 5613 5612 5610 5609 5607 5606 5606 5606 5604 5603 5602 5601 5599 5598 5596 5595 5593 5592 5590 5589 5588 5586 5585 5583 5582 5581 5580 5579 5577 5575 5573 5571 5569 5567 5565 5564 5563
5613 5612 5611 5609 5607 5606 5605 5603 5602 5601 5600 5599 5598 5597 5596 5595 5594 5592 5591 5590 5588 5587 5585 5584 5582 5581 5580 5579 5577 5575 5574 5573 5572 5571 5569 5566 5565 5563 5561 5559 5558 5556 5555
5606 5605 5603 5601 5599 5597 5596 5595 5593 5593 5593 5592 5590 5589 5588 5587 5586 5585 5584 5582 5580 5579 5577 5576 5575 5573 5572 5570 5569 5567 5567 5566 5564 5563 5561 5558 5556 5555 5553 5552 5551 5550 5549
5598 5596 5594 5593 5592 5590 5589 5587 5585 5585 5584 5583 5582 5581 5580 5579 5577 5576 5575 5574 5572 5570 5569 5568 5566 5565 5563 5562 5561 5559 5559 5557 5556 5554 5552 5550 5548 5547 5546 5546 5544 5544 5542
5591 5589 5587 5585 5584 5583 5581 5579 5578 5577 5576 5575 5574 5572 5571 5569 5568 5567 5565 5563 5562 5561 5560 5558 5556 5555 5553 5552 5551 5550 5549 5548 5546 5545 5543 5542 5540 5539 5538 5538 5537 5536 5535